Year,Month,Day,Hour,Minute,Value (Times are PST for temperature in C)
2008,12,12,00,00,2.70
2008,12,12,00,01,2.70
2008,12,12,00,02,2.70
2008,12,12,00,03,2.70
2008,12,12,00,04,2.70
2008,12,12,00,05,2.70
2008,12,12,00,06,2.70
2008,12,12,00,07,2.70
2008,12,12,00,08,2.70
2008,12,12,00,09,2.70
2008,12,12,00,10,2.70
2008,12,12,00,11,2.70
2008,12,12,00,12,2.70
2008,12,12,00,13,2.70
2008,12,12,00,14,2.70
2008,12,12,00,15,2.70
2008,12,12,00,16,2.70
2008,12,12,00,17,2.70
2008,12,12,00,18,2.70
2008,12,12,00,19,2.70
2008,12,12,00,20,2.70
2008,12,12,00,21,2.70
2008,12,12,00,22,2.70
2008,12,12,00,23,2.70
2008,12,12,00,24,2.70
2008,12,12,00,25,2.70
2008,12,12,00,26,2.70
2008,12,12,00,27,2.70
2008,12,12,00,28,2.70
2008,12,12,00,29,2.60
2008,12,12,00,30,2.60
2008,12,12,00,31,2.70
2008,12,12,00,32,2.60
2008,12,12,00,33,2.60
2008,12,12,00,34,2.70
2008,12,12,00,35,2.70
2008,12,12,00,36,2.70
2008,12,12,00,37,2.70
2008,12,12,00,38,2.70
2008,12,12,00,39,2.70
2008,12,12,00,40,2.70
2008,12,12,00,41,2.70
2008,12,12,00,42,2.70
2008,12,12,00,43,2.70
2008,12,12,00,44,2.70
2008,12,12,00,45,2.70
2008,12,12,00,46,2.70
2008,12,12,00,47,2.70
2008,12,12,00,48,2.70
2008,12,12,00,49,2.70
2008,12,12,00,50,2.70
2008,12,12,00,51,2.70
2008,12,12,00,52,2.70
2008,12,12,00,53,2.70
2008,12,12,00,54,2.70
2008,12,12,00,55,2.70
2008,12,12,00,56,2.70
2008,12,12,00,57,2.70
2008,12,12,00,58,2.70
2008,12,12,00,59,2.70
2008,12,12,01,00,2.70
2008,12,12,01,01,2.70
2008,12,12,01,02,2.70
2008,12,12,01,03,2.70
2008,12,12,01,04,2.70
2008,12,12,01,05,2.70
2008,12,12,01,06,2.70
2008,12,12,01,07,2.70
2008,12,12,01,08,2.70
2008,12,12,01,09,2.60
2008,12,12,01,10,2.70
2008,12,12,01,11,2.60
2008,12,12,01,12,2.60
2008,12,12,01,13,2.60
2008,12,12,01,14,2.60
2008,12,12,01,15,2.60
2008,12,12,01,16,2.70
2008,12,12,01,17,2.60
2008,12,12,01,18,2.70
2008,12,12,01,19,2.60
2008,12,12,01,20,2.70
2008,12,12,01,21,2.70
2008,12,12,01,22,2.60
2008,12,12,01,23,2.60
2008,12,12,01,24,2.70
2008,12,12,01,25,2.70
2008,12,12,01,26,2.70
2008,12,12,01,27,2.60
2008,12,12,01,28,2.70
2008,12,12,01,29,2.70
2008,12,12,01,30,2.70
2008,12,12,01,31,2.70
2008,12,12,01,32,2.70
2008,12,12,01,33,2.70
2008,12,12,01,34,2.70
2008,12,12,01,35,2.60
2008,12,12,01,36,2.70
2008,12,12,01,37,2.70
2008,12,12,01,38,2.70
2008,12,12,01,39,2.70
2008,12,12,01,40,2.70
2008,12,12,01,41,2.70
2008,12,12,01,42,2.70
2008,12,12,01,43,2.70
2008,12,12,01,44,2.70
2008,12,12,01,45,2.70
2008,12,12,01,46,2.70
2008,12,12,01,47,2.70
2008,12,12,01,48,2.60
2008,12,12,01,49,2.60
2008,12,12,01,50,2.60
2008,12,12,01,51,2.60
2008,12,12,01,52,2.60
2008,12,12,01,53,2.60
2008,12,12,01,54,2.60
2008,12,12,01,55,2.60
2008,12,12,01,56,2.60
2008,12,12,01,57,2.60
2008,12,12,01,58,2.60
2008,12,12,01,59,2.60
2008,12,12,02,00,2.60
2008,12,12,02,01,2.60
2008,12,12,02,02,2.60
2008,12,12,02,03,2.60
2008,12,12,02,04,2.60
2008,12,12,02,05,2.60
2008,12,12,02,06,2.60
2008,12,12,02,07,2.60
2008,12,12,02,08,2.60
2008,12,12,02,09,2.60
2008,12,12,02,10,2.60
2008,12,12,02,11,2.60
2008,12,12,02,12,2.70
2008,12,12,02,13,2.70
2008,12,12,02,14,2.70
2008,12,12,02,15,2.70
2008,12,12,02,16,2.70
2008,12,12,02,17,2.70
2008,12,12,02,18,2.70
2008,12,12,02,19,2.70
2008,12,12,02,20,2.80
2008,12,12,02,21,2.80
2008,12,12,02,22,2.80
2008,12,12,02,23,2.80
2008,12,12,02,24,2.80
2008,12,12,02,25,2.80
2008,12,12,02,26,2.80
2008,12,12,02,27,2.80
2008,12,12,02,28,2.80
2008,12,12,02,29,2.80
2008,12,12,02,30,2.80
2008,12,12,02,31,2.80
2008,12,12,02,32,2.80
2008,12,12,02,33,2.80
2008,12,12,02,34,2.80
2008,12,12,02,35,2.80
2008,12,12,02,36,2.80
2008,12,12,02,37,2.80
2008,12,12,02,38,2.80
2008,12,12,02,39,2.80
2008,12,12,02,40,2.80
2008,12,12,02,41,2.80
2008,12,12,02,42,2.80
2008,12,12,02,43,2.80
2008,12,12,02,44,2.80
2008,12,12,02,45,2.80
2008,12,12,02,46,2.80
2008,12,12,02,47,2.80
2008,12,12,02,48,2.80
2008,12,12,02,49,2.80
2008,12,12,02,50,2.80
2008,12,12,02,51,2.80
2008,12,12,02,52,2.80
2008,12,12,02,53,2.80
2008,12,12,02,54,2.80
2008,12,12,02,55,2.80
2008,12,12,02,56,2.80
2008,12,12,02,57,2.80
2008,12,12,02,58,2.80
2008,12,12,02,59,2.80
2008,12,12,03,00,2.80
2008,12,12,03,01,2.80
2008,12,12,03,02,2.80
2008,12,12,03,03,2.80
2008,12,12,03,04,2.80
2008,12,12,03,05,2.80
2008,12,12,03,06,2.80
2008,12,12,03,07,2.80
2008,12,12,03,08,2.80
2008,12,12,03,09,2.80
2008,12,12,03,10,2.80
2008,12,12,03,11,2.80
2008,12,12,03,12,2.80
2008,12,12,03,13,2.80
2008,12,12,03,14,2.80
2008,12,12,03,15,2.80
2008,12,12,03,16,2.80
2008,12,12,03,17,2.80
2008,12,12,03,18,2.80
2008,12,12,03,19,2.80
2008,12,12,03,20,2.80
2008,12,12,03,21,2.80
2008,12,12,03,22,2.80
2008,12,12,03,23,2.80
2008,12,12,03,24,2.80
2008,12,12,03,25,2.80
2008,12,12,03,26,2.80
2008,12,12,03,27,2.80
2008,12,12,03,28,2.80
2008,12,12,03,29,2.80
2008,12,12,03,30,2.80
2008,12,12,03,31,2.80
2008,12,12,03,32,2.80
2008,12,12,03,33,2.80
2008,12,12,03,34,2.80
2008,12,12,03,35,2.80
2008,12,12,03,36,2.80
2008,12,12,03,37,2.80
2008,12,12,03,38,2.80
2008,12,12,03,39,2.80
2008,12,12,03,40,2.80
2008,12,12,03,41,2.80
2008,12,12,03,42,2.80
2008,12,12,03,43,2.70
2008,12,12,03,44,2.70
2008,12,12,03,45,2.80
2008,12,12,03,46,2.70
2008,12,12,03,47,2.70
2008,12,12,03,48,2.70
2008,12,12,03,49,2.70
2008,12,12,03,50,2.70
2008,12,12,03,51,2.70
2008,12,12,03,52,2.70
2008,12,12,03,53,2.70
2008,12,12,03,54,2.70
2008,12,12,03,55,2.70
2008,12,12,03,56,2.70
2008,12,12,03,57,2.70
2008,12,12,03,58,2.70
2008,12,12,03,59,2.70
2008,12,12,04,00,2.70
2008,12,12,04,01,2.70
2008,12,12,04,02,2.60
2008,12,12,04,03,2.60
2008,12,12,04,04,2.60
2008,12,12,04,05,2.60
2008,12,12,04,06,2.60
2008,12,12,04,07,2.60
2008,12,12,04,08,2.60
2008,12,12,04,09,2.60
2008,12,12,04,10,2.60
2008,12,12,04,11,2.60
2008,12,12,04,12,2.60
2008,12,12,04,13,2.60
2008,12,12,04,14,2.60
2008,12,12,04,15,2.60
2008,12,12,04,16,2.60
2008,12,12,04,17,2.60
2008,12,12,04,18,2.60
2008,12,12,04,19,2.60
2008,12,12,04,20,2.60
2008,12,12,04,21,2.60
2008,12,12,04,22,2.60
2008,12,12,04,23,2.60
2008,12,12,04,24,2.60
2008,12,12,04,25,2.60
2008,12,12,04,26,2.60
2008,12,12,04,27,2.60
2008,12,12,04,28,2.60
2008,12,12,04,29,2.60
2008,12,12,04,30,2.60
2008,12,12,04,31,2.60
2008,12,12,04,32,2.60
2008,12,12,04,33,2.60
2008,12,12,04,34,2.60
2008,12,12,04,35,2.60
2008,12,12,04,36,2.60
2008,12,12,04,37,2.60
2008,12,12,04,38,2.60
2008,12,12,04,39,2.60
2008,12,12,04,40,2.60
2008,12,12,04,41,2.60
2008,12,12,04,42,2.60
2008,12,12,04,43,2.60
2008,12,12,04,44,2.60
2008,12,12,04,45,2.60
2008,12,12,04,46,2.60
2008,12,12,04,47,2.60
2008,12,12,04,48,2.60
2008,12,12,04,49,2.60
2008,12,12,04,50,2.70
2008,12,12,04,51,2.70
2008,12,12,04,52,2.70
2008,12,12,04,53,2.60
2008,12,12,04,54,2.60
2008,12,12,04,55,2.60
2008,12,12,04,56,2.60
2008,12,12,04,57,2.60
2008,12,12,04,58,2.60
2008,12,12,04,59,2.60
2008,12,12,05,00,2.60
2008,12,12,05,01,2.60
2008,12,12,05,02,2.60
2008,12,12,05,03,2.60
2008,12,12,05,04,2.60
2008,12,12,05,05,2.60
2008,12,12,05,06,2.60
2008,12,12,05,07,2.60
2008,12,12,05,08,2.60
2008,12,12,05,09,2.60
2008,12,12,05,10,2.60
2008,12,12,05,11,2.60
2008,12,12,05,12,2.60
2008,12,12,05,13,2.60
2008,12,12,05,14,2.60
2008,12,12,05,15,2.60
2008,12,12,05,16,2.60
2008,12,12,05,17,2.60
2008,12,12,05,18,2.60
2008,12,12,05,19,2.60
2008,12,12,05,20,2.60
2008,12,12,05,21,2.60
2008,12,12,05,22,2.60
2008,12,12,05,23,2.60
2008,12,12,05,24,2.60
2008,12,12,05,25,2.60
2008,12,12,05,26,2.60
2008,12,12,05,27,2.60
2008,12,12,05,28,2.60
2008,12,12,05,29,2.60
2008,12,12,05,30,2.60
2008,12,12,05,31,2.60
2008,12,12,05,32,2.60
2008,12,12,05,33,2.60
2008,12,12,05,34,2.60
2008,12,12,05,35,2.60
2008,12,12,05,36,2.60
2008,12,12,05,37,2.70
2008,12,12,05,38,2.70
2008,12,12,05,39,2.70
2008,12,12,05,40,2.70
2008,12,12,05,41,2.70
2008,12,12,05,42,2.70
2008,12,12,05,43,2.70
2008,12,12,05,44,2.70
2008,12,12,05,45,2.70
2008,12,12,05,46,2.70
2008,12,12,05,47,2.70
2008,12,12,05,48,2.60
2008,12,12,05,49,2.60
2008,12,12,05,50,2.60
2008,12,12,05,51,2.60
2008,12,12,05,52,2.60
2008,12,12,05,53,2.60
2008,12,12,05,54,2.60
2008,12,12,05,55,2.60
2008,12,12,05,56,2.60
2008,12,12,05,57,2.60
2008,12,12,05,58,2.60
2008,12,12,05,59,2.60
2008,12,12,06,00,2.60
2008,12,12,06,01,2.60
2008,12,12,06,02,2.60
2008,12,12,06,03,2.60
2008,12,12,06,04,2.70
2008,12,12,06,05,2.70
2008,12,12,06,06,2.70
2008,12,12,06,07,2.60
2008,12,12,06,08,2.70
2008,12,12,06,09,2.70
2008,12,12,06,10,2.70
2008,12,12,06,11,2.70
2008,12,12,06,12,2.70
2008,12,12,06,13,2.70
2008,12,12,06,14,2.70
2008,12,12,06,15,2.70
2008,12,12,06,16,2.70
2008,12,12,06,17,2.70
2008,12,12,06,18,2.70
2008,12,12,06,19,2.70
2008,12,12,06,20,2.70
2008,12,12,06,21,2.70
2008,12,12,06,22,2.70
2008,12,12,06,23,2.70
2008,12,12,06,24,2.70
2008,12,12,06,25,2.70
2008,12,12,06,26,2.70
2008,12,12,06,27,2.70
2008,12,12,06,28,2.70
2008,12,12,06,29,2.70
2008,12,12,06,30,2.70
2008,12,12,06,31,2.70
2008,12,12,06,32,2.70
2008,12,12,06,33,2.70
2008,12,12,06,34,2.80
2008,12,12,06,35,2.80
2008,12,12,06,36,2.80
2008,12,12,06,37,2.80
2008,12,12,06,38,2.80
2008,12,12,06,39,2.80
2008,12,12,06,40,2.80
2008,12,12,06,41,2.80
2008,12,12,06,42,2.80
2008,12,12,06,43,2.80
2008,12,12,06,44,2.80
2008,12,12,06,45,2.80
2008,12,12,06,46,2.80
2008,12,12,06,47,2.80
2008,12,12,06,48,2.80
2008,12,12,06,49,2.80
2008,12,12,06,50,2.80
2008,12,12,06,51,2.80
2008,12,12,06,52,2.80
2008,12,12,06,53,2.80
2008,12,12,06,54,2.80
2008,12,12,06,55,2.80
2008,12,12,06,56,2.80
2008,12,12,06,57,2.80
2008,12,12,06,58,2.80
2008,12,12,06,59,2.80
2008,12,12,07,00,2.80
2008,12,12,07,01,2.80
2008,12,12,07,02,2.80
2008,12,12,07,03,2.80
2008,12,12,07,04,2.80
2008,12,12,07,05,2.80
2008,12,12,07,06,2.80
2008,12,12,07,07,2.80
2008,12,12,07,08,2.80
2008,12,12,07,09,2.80
2008,12,12,07,10,2.80
2008,12,12,07,11,2.80
2008,12,12,07,12,2.80
2008,12,12,07,13,2.80
2008,12,12,07,14,2.80
2008,12,12,07,15,2.80
2008,12,12,07,16,2.80
2008,12,12,07,17,2.80
2008,12,12,07,18,2.80
2008,12,12,07,19,2.80
2008,12,12,07,20,2.80
2008,12,12,07,21,2.80
2008,12,12,07,22,2.80
2008,12,12,07,23,2.70
2008,12,12,07,24,2.70
2008,12,12,07,25,2.70
2008,12,12,07,26,2.70
2008,12,12,07,27,2.70
2008,12,12,07,28,2.70
2008,12,12,07,29,2.70
2008,12,12,07,30,2.70
2008,12,12,07,31,2.70
2008,12,12,07,32,2.70
2008,12,12,07,33,2.70
2008,12,12,07,34,2.70
2008,12,12,07,35,2.70
2008,12,12,07,36,2.70
2008,12,12,07,37,2.70
2008,12,12,07,38,2.70
2008,12,12,07,39,2.70
2008,12,12,07,40,2.70
2008,12,12,07,41,2.70
2008,12,12,07,42,2.70
2008,12,12,07,43,2.70
2008,12,12,07,44,2.70
2008,12,12,07,45,2.70
2008,12,12,07,46,2.70
2008,12,12,07,47,2.70
2008,12,12,07,48,2.70
2008,12,12,07,49,2.70
2008,12,12,07,50,2.70
2008,12,12,07,51,2.70
2008,12,12,07,52,2.70
2008,12,12,07,53,2.70
2008,12,12,07,54,2.70
2008,12,12,07,55,2.70
2008,12,12,07,56,2.70
2008,12,12,07,57,2.60
2008,12,12,07,58,2.60
2008,12,12,07,59,2.60
2008,12,12,08,00,2.60
2008,12,12,08,01,2.60
2008,12,12,08,02,2.60
2008,12,12,08,03,2.60
2008,12,12,08,04,2.60
2008,12,12,08,05,2.60
2008,12,12,08,06,2.70
2008,12,12,08,07,2.60
2008,12,12,08,08,2.70
2008,12,12,08,09,2.70
2008,12,12,08,10,2.70
2008,12,12,08,11,2.70
2008,12,12,08,12,2.70
2008,12,12,08,13,2.70
2008,12,12,08,14,2.70
2008,12,12,08,15,2.70
2008,12,12,08,16,2.60
2008,12,12,08,17,2.60
2008,12,12,08,18,2.60
2008,12,12,08,19,2.60
2008,12,12,08,20,2.60
2008,12,12,08,21,2.60
2008,12,12,08,22,2.60
2008,12,12,08,23,2.60
2008,12,12,08,24,2.60
2008,12,12,08,25,2.50
2008,12,12,08,26,2.50
2008,12,12,08,27,2.50
2008,12,12,08,28,2.50
2008,12,12,08,29,2.50
2008,12,12,08,30,2.40
2008,12,12,08,31,2.40
2008,12,12,08,32,2.40
2008,12,12,08,33,2.40
2008,12,12,08,34,2.40
2008,12,12,08,35,2.40
2008,12,12,08,36,2.40
2008,12,12,08,37,2.40
2008,12,12,08,38,2.30
2008,12,12,08,39,2.30
2008,12,12,08,40,2.30
2008,12,12,08,41,2.30
2008,12,12,08,42,2.30
2008,12,12,08,43,2.30
2008,12,12,08,44,2.30
2008,12,12,08,45,2.30
2008,12,12,08,46,2.30
2008,12,12,08,47,2.30
2008,12,12,08,48,2.30
2008,12,12,08,49,2.30
2008,12,12,08,50,2.30
2008,12,12,08,51,2.30
2008,12,12,08,52,2.30
2008,12,12,08,53,2.30
2008,12,12,08,54,2.30
2008,12,12,08,55,2.30
2008,12,12,08,56,2.30
2008,12,12,08,57,2.40
2008,12,12,08,58,2.40
2008,12,12,08,59,2.40
2008,12,12,09,00,2.40
2008,12,12,09,01,2.40
2008,12,12,09,02,2.40
2008,12,12,09,03,2.40
2008,12,12,09,04,2.40
2008,12,12,09,05,2.40
2008,12,12,09,06,2.40
2008,12,12,09,07,2.40
2008,12,12,09,08,2.50
2008,12,12,09,09,2.40
2008,12,12,09,10,2.50
2008,12,12,09,11,2.50
2008,12,12,09,12,2.50
2008,12,12,09,13,2.50
2008,12,12,09,14,2.50
2008,12,12,09,15,2.50
2008,12,12,09,16,2.50
2008,12,12,09,17,2.50
2008,12,12,09,18,2.50
2008,12,12,09,19,2.60
2008,12,12,09,20,2.60
2008,12,12,09,21,2.60
2008,12,12,09,22,2.60
2008,12,12,09,23,2.60
2008,12,12,09,24,2.60
2008,12,12,09,25,2.60
2008,12,12,09,26,2.60
2008,12,12,09,27,2.60
2008,12,12,09,28,2.60
2008,12,12,09,29,2.60
2008,12,12,09,30,2.60
2008,12,12,09,31,2.60
2008,12,12,09,32,2.60
2008,12,12,09,33,2.60
2008,12,12,09,34,2.60
2008,12,12,09,35,2.60
2008,12,12,09,36,2.60
2008,12,12,09,37,2.60
2008,12,12,09,38,2.60
2008,12,12,09,39,2.60
2008,12,12,09,40,2.60
2008,12,12,09,41,2.60
2008,12,12,09,42,2.60
2008,12,12,09,43,2.50
2008,12,12,09,44,2.50
2008,12,12,09,45,2.50
2008,12,12,09,46,2.50
2008,12,12,09,47,2.50
2008,12,12,09,48,2.50
2008,12,12,09,49,2.50
2008,12,12,09,50,2.50
2008,12,12,09,51,2.50
2008,12,12,09,52,2.50
2008,12,12,09,53,2.50
2008,12,12,09,54,2.50
2008,12,12,09,55,2.50
2008,12,12,09,56,2.50
2008,12,12,09,57,2.40
2008,12,12,09,58,2.50
2008,12,12,09,59,2.40
2008,12,12,10,00,2.40
2008,12,12,10,01,2.50
2008,12,12,10,02,2.40
2008,12,12,10,03,2.40
2008,12,12,10,04,2.40
2008,12,12,10,05,2.40
2008,12,12,10,06,2.40
2008,12,12,10,07,2.40
2008,12,12,10,08,2.40
2008,12,12,10,09,2.40
2008,12,12,10,10,2.40
2008,12,12,10,11,2.40
2008,12,12,10,12,2.40
2008,12,12,10,13,2.40
2008,12,12,10,14,2.40
2008,12,12,10,15,2.40
2008,12,12,10,16,2.30
2008,12,12,10,17,2.20
2008,12,12,10,18,2.10
2008,12,12,10,19,2.00
2008,12,12,10,20,1.90
2008,12,12,10,21,1.80
2008,12,12,10,22,1.70
2008,12,12,10,23,1.50
2008,12,12,10,24,1.40
2008,12,12,10,25,1.30
2008,12,12,10,26,1.30
2008,12,12,10,27,1.30
2008,12,12,10,28,1.20
2008,12,12,10,29,1.20
2008,12,12,10,30,1.10
2008,12,12,10,31,1.10
2008,12,12,10,32,1.10
2008,12,12,10,33,1.00
2008,12,12,10,34,0.90
2008,12,12,10,35,0.90
2008,12,12,10,36,0.90
2008,12,12,10,37,0.90
2008,12,12,10,38,0.80
2008,12,12,10,39,0.80
2008,12,12,10,40,0.80
2008,12,12,10,41,0.80
2008,12,12,10,42,0.80
2008,12,12,10,43,0.80
2008,12,12,10,44,0.80
2008,12,12,10,45,0.80
2008,12,12,10,46,0.80
2008,12,12,10,47,0.80
2008,12,12,10,48,0.80
2008,12,12,10,49,0.90
2008,12,12,10,50,0.90
2008,12,12,10,51,0.90
2008,12,12,10,52,0.90
2008,12,12,10,53,1.00
2008,12,12,10,54,1.00
2008,12,12,10,55,1.00
2008,12,12,10,56,1.10
2008,12,12,10,57,1.10
2008,12,12,10,58,1.10
2008,12,12,10,59,1.10
2008,12,12,11,00,1.10
2008,12,12,11,01,1.10
2008,12,12,11,02,1.10
2008,12,12,11,03,1.20
2008,12,12,11,04,1.10
2008,12,12,11,05,1.20
2008,12,12,11,06,1.20
2008,12,12,11,07,1.20
2008,12,12,11,08,1.20
2008,12,12,11,09,1.20
2008,12,12,11,10,1.20
2008,12,12,11,11,1.20
2008,12,12,11,12,1.20
2008,12,12,11,13,1.20
2008,12,12,11,14,1.20
2008,12,12,11,15,1.20
2008,12,12,11,16,1.10
2008,12,12,11,17,1.10
2008,12,12,11,18,1.10
2008,12,12,11,19,1.00
2008,12,12,11,20,1.00
2008,12,12,11,21,1.00
2008,12,12,11,22,1.00
2008,12,12,11,23,0.90
2008,12,12,11,24,0.90
2008,12,12,11,25,0.90
2008,12,12,11,26,0.90
2008,12,12,11,27,0.80
2008,12,12,11,28,0.80
2008,12,12,11,29,0.80
2008,12,12,11,30,0.80
2008,12,12,11,31,0.70
2008,12,12,11,32,0.70
2008,12,12,11,33,0.70
2008,12,12,11,34,0.60
2008,12,12,11,35,0.60
2008,12,12,11,36,0.50
2008,12,12,11,37,0.50
2008,12,12,11,38,0.40
2008,12,12,11,39,0.40
2008,12,12,11,40,0.40
2008,12,12,11,41,0.30
2008,12,12,11,42,0.30
2008,12,12,11,43,0.30
2008,12,12,11,44,0.30
2008,12,12,11,45,0.30
2008,12,12,11,46,0.30
2008,12,12,11,47,0.20
2008,12,12,11,48,0.20
2008,12,12,11,49,0.20
2008,12,12,11,50,0.20
2008,12,12,11,51,0.20
2008,12,12,11,52,0.20
2008,12,12,11,53,0.20
2008,12,12,11,54,0.20
2008,12,12,11,55,0.20
2008,12,12,11,56,0.10
2008,12,12,11,57,0.10
2008,12,12,11,58,0.10
2008,12,12,11,59,0.10
2008,12,12,12,00,0.10
2008,12,12,12,01,0.10
2008,12,12,12,02,0.10
2008,12,12,12,03,0.10
2008,12,12,12,04,0.10
2008,12,12,12,05,0.10
2008,12,12,12,06,0.10
2008,12,12,12,07,0.10
2008,12,12,12,08,0.10
2008,12,12,12,09,0.10
2008,12,12,12,10,0.10
2008,12,12,12,11,0.10
2008,12,12,12,12,0.10
2008,12,12,12,13,0.10
2008,12,12,12,14,0.10
2008,12,12,12,15,0.10
2008,12,12,12,16,0.10
2008,12,12,12,17,0.10
2008,12,12,12,18,0.10
2008,12,12,12,19,0.10
2008,12,12,12,20,0.10
2008,12,12,12,21,0.10
2008,12,12,12,22,0.10
2008,12,12,12,23,0.10
2008,12,12,12,24,0.10
2008,12,12,12,25,0.10
2008,12,12,12,26,0.10
2008,12,12,12,27,0.10
2008,12,12,12,28,0.10
2008,12,12,12,29,0.10
2008,12,12,12,30,0.10
2008,12,12,12,31,0.10
2008,12,12,12,32,0.10
2008,12,12,12,33,0.10
2008,12,12,12,34,0.10
2008,12,12,12,35,0.10
2008,12,12,12,36,0.10
2008,12,12,12,37,0.10
2008,12,12,12,38,0.10
2008,12,12,12,39,0.10
2008,12,12,12,40,0.10
2008,12,12,12,41,0.10
2008,12,12,12,42,0.10
2008,12,12,12,43,0.10
2008,12,12,12,44,0.10
2008,12,12,12,45,0.10
2008,12,12,12,46,0.10
2008,12,12,12,47,0.10
2008,12,12,12,48,0.10
2008,12,12,12,49,0.10
2008,12,12,12,50,0.10
2008,12,12,12,51,0.10
2008,12,12,12,52,0.10
2008,12,12,12,53,0.10
2008,12,12,12,54,0.10
2008,12,12,12,55,0.10
2008,12,12,12,56,0.10
2008,12,12,12,57,0.10
2008,12,12,12,58,0.10
2008,12,12,12,59,0.10
2008,12,12,13,00,0.10
2008,12,12,13,01,0.10
2008,12,12,13,02,0.10
2008,12,12,13,03,0.10
2008,12,12,13,04,0.10
2008,12,12,13,05,0.10
2008,12,12,13,06,0.10
2008,12,12,13,07,0.10
2008,12,12,13,08,0.10
2008,12,12,13,09,0.20
2008,12,12,13,10,0.10
2008,12,12,13,11,0.10
2008,12,12,13,12,0.20
2008,12,12,13,13,0.20
2008,12,12,13,14,0.20
2008,12,12,13,15,0.20
2008,12,12,13,16,0.20
2008,12,12,13,17,0.20
2008,12,12,13,18,0.10
2008,12,12,13,19,0.10
2008,12,12,13,20,0.20
2008,12,12,13,21,0.20
2008,12,12,13,22,0.20
2008,12,12,13,23,0.20
2008,12,12,13,24,0.20
2008,12,12,13,25,0.20
2008,12,12,13,26,0.20
2008,12,12,13,27,0.20
2008,12,12,13,28,0.10
2008,12,12,13,29,0.10
2008,12,12,13,30,0.10
2008,12,12,13,31,0.10
2008,12,12,13,32,0.10
2008,12,12,13,33,0.10
2008,12,12,13,34,0.10
2008,12,12,13,35,0.10
2008,12,12,13,36,0.10
2008,12,12,13,37,0.10
2008,12,12,13,38,0.10
2008,12,12,13,39,0.10
2008,12,12,13,40,0.10
2008,12,12,13,41,0.10
2008,12,12,13,42,0.20
2008,12,12,13,43,0.20
2008,12,12,13,44,0.20
2008,12,12,13,45,0.20
2008,12,12,13,46,0.30
2008,12,12,13,47,0.30
2008,12,12,13,48,0.30
2008,12,12,13,49,0.30
2008,12,12,13,50,0.30
2008,12,12,13,51,0.30
2008,12,12,13,52,0.30
2008,12,12,13,53,0.30
2008,12,12,13,54,0.30
2008,12,12,13,55,0.30
2008,12,12,13,56,0.20
2008,12,12,13,57,0.20
2008,12,12,13,58,0.20
2008,12,12,13,59,0.20
2008,12,12,14,00,0.20
2008,12,12,14,01,0.20
2008,12,12,14,02,0.20
2008,12,12,14,03,0.20
2008,12,12,14,04,0.20
2008,12,12,14,05,0.10
2008,12,12,14,06,0.20
2008,12,12,14,07,0.20
2008,12,12,14,08,0.20
2008,12,12,14,09,0.20
2008,12,12,14,10,0.30
2008,12,12,14,11,0.30
2008,12,12,14,12,0.30
2008,12,12,14,13,0.30
2008,12,12,14,14,0.40
2008,12,12,14,15,0.40
2008,12,12,14,16,0.40
2008,12,12,14,17,0.40
2008,12,12,14,18,0.40
2008,12,12,14,19,0.50
2008,12,12,14,20,0.50
2008,12,12,14,21,0.50
2008,12,12,14,22,0.50
2008,12,12,14,23,0.50
2008,12,12,14,24,0.40
2008,12,12,14,25,0.40
2008,12,12,14,26,0.40
2008,12,12,14,27,0.40
2008,12,12,14,28,0.40
2008,12,12,14,29,0.40
2008,12,12,14,30,0.40
2008,12,12,14,31,0.40
2008,12,12,14,32,0.40
2008,12,12,14,33,0.40
2008,12,12,14,34,0.40
2008,12,12,14,35,0.40
2008,12,12,14,36,0.40
2008,12,12,14,37,0.40
2008,12,12,14,38,0.30
2008,12,12,14,39,0.30
2008,12,12,14,40,0.30
2008,12,12,14,41,0.20
2008,12,12,14,42,0.20
2008,12,12,14,43,0.20
2008,12,12,14,44,0.20
2008,12,12,14,45,0.10
2008,12,12,14,46,0.10
2008,12,12,14,47,0.10
2008,12,12,14,48,0.10
2008,12,12,14,49,0.10
2008,12,12,14,50,0.10
2008,12,12,14,51,0.00
2008,12,12,14,52,0.00
2008,12,12,14,53,0.00
2008,12,12,14,54,0.10
2008,12,12,14,55,0.10
2008,12,12,14,56,0.10
2008,12,12,14,57,0.10
2008,12,12,14,58,0.10
2008,12,12,14,59,0.10
2008,12,12,15,00,0.10
2008,12,12,15,01,0.10
2008,12,12,15,02,0.10
2008,12,12,15,03,0.20
2008,12,12,15,04,0.20
2008,12,12,15,05,0.20
2008,12,12,15,06,0.20
2008,12,12,15,07,0.10
2008,12,12,15,08,0.10
2008,12,12,15,09,0.00
2008,12,12,15,10,0.00
2008,12,12,15,11,-0.10
2008,12,12,15,12,-0.10
2008,12,12,15,13,-0.20
2008,12,12,15,14,-0.20
2008,12,12,15,15,-0.20
2008,12,12,15,16,-0.20
2008,12,12,15,17,-0.20
2008,12,12,15,18,-0.20
2008,12,12,15,19,-0.20
2008,12,12,15,20,-0.30
2008,12,12,15,21,-0.30
2008,12,12,15,22,-0.30
2008,12,12,15,23,-0.30
2008,12,12,15,24,-0.30
2008,12,12,15,25,-0.30
2008,12,12,15,26,-0.30
2008,12,12,15,27,-0.30
2008,12,12,15,28,-0.30
2008,12,12,15,29,-0.30
2008,12,12,15,30,-0.30
2008,12,12,15,31,-0.30
2008,12,12,15,32,-0.30
2008,12,12,15,33,-0.30
2008,12,12,15,34,-0.30
2008,12,12,15,35,-0.30
2008,12,12,15,36,-0.30
2008,12,12,15,37,-0.30
2008,12,12,15,38,-0.30
2008,12,12,15,39,-0.30
2008,12,12,15,40,-0.30
2008,12,12,15,41,-0.30
2008,12,12,15,42,-0.30
2008,12,12,15,43,-0.20
2008,12,12,15,44,-0.20
2008,12,12,15,45,-0.20
2008,12,12,15,46,-0.30
2008,12,12,15,47,-0.30
2008,12,12,15,48,-0.30
2008,12,12,15,49,-0.20
2008,12,12,15,50,-0.20
2008,12,12,15,51,-0.20
2008,12,12,15,52,-0.20
2008,12,12,15,53,-0.20
2008,12,12,15,54,-0.20
2008,12,12,15,55,-0.20
2008,12,12,15,56,-0.20
2008,12,12,15,57,-0.20
2008,12,12,15,58,-0.20
2008,12,12,15,59,-0.20
2008,12,12,16,00,-0.20
2008,12,12,16,01,-0.20
2008,12,12,16,02,-0.20
2008,12,12,16,03,-0.20
2008,12,12,16,04,-0.20
2008,12,12,16,05,-0.20
2008,12,12,16,06,-0.20
2008,12,12,16,07,-0.20
2008,12,12,16,08,-0.20
2008,12,12,16,09,-0.20
2008,12,12,16,10,-0.20
2008,12,12,16,11,-0.20
2008,12,12,16,12,-0.20
2008,12,12,16,13,-0.20
2008,12,12,16,14,-0.20
2008,12,12,16,15,-0.10
2008,12,12,16,16,-0.10
2008,12,12,16,17,-0.10
2008,12,12,16,18,-0.10
2008,12,12,16,19,-0.10
2008,12,12,16,20,-0.10
2008,12,12,16,21,-0.10
2008,12,12,16,22,-0.10
2008,12,12,16,23,-0.10
2008,12,12,16,24,-0.10
2008,12,12,16,25,-0.10
2008,12,12,16,26,-0.10
2008,12,12,16,27,-0.10
2008,12,12,16,28,-0.10
2008,12,12,16,29,-0.10
2008,12,12,16,30,-0.10
2008,12,12,16,31,-0.10
2008,12,12,16,32,-0.10
2008,12,12,16,33,-0.10
2008,12,12,16,34,-0.10
2008,12,12,16,35,-0.10
2008,12,12,16,36,-0.10
2008,12,12,16,37,0.00
2008,12,12,16,38,0.00
2008,12,12,16,39,0.00
2008,12,12,16,40,0.00
2008,12,12,16,41,0.00
2008,12,12,16,42,0.00
2008,12,12,16,43,0.00
2008,12,12,16,44,0.10
2008,12,12,16,45,0.10
2008,12,12,16,46,0.10
2008,12,12,16,47,0.10
2008,12,12,16,48,0.10
2008,12,12,16,49,0.10
2008,12,12,16,50,0.10
2008,12,12,16,51,0.20
2008,12,12,16,52,0.10
2008,12,12,16,53,0.20
2008,12,12,16,54,0.20
2008,12,12,16,55,0.20
2008,12,12,16,56,0.20
2008,12,12,16,57,0.20
2008,12,12,16,58,0.20
2008,12,12,16,59,0.20
2008,12,12,17,00,0.20
2008,12,12,17,01,0.20
2008,12,12,17,02,0.20
2008,12,12,17,03,0.20
2008,12,12,17,04,0.20
2008,12,12,17,05,0.20
2008,12,12,17,06,0.20
2008,12,12,17,07,0.20
2008,12,12,17,08,0.20
2008,12,12,17,09,0.20
2008,12,12,17,10,0.30
2008,12,12,17,11,0.30
2008,12,12,17,12,0.30
2008,12,12,17,13,0.30
2008,12,12,17,14,0.30
2008,12,12,17,15,0.30
2008,12,12,17,16,0.30
2008,12,12,17,17,0.30
2008,12,12,17,18,0.30
2008,12,12,17,19,0.30
2008,12,12,17,20,0.30
2008,12,12,17,21,0.30
2008,12,12,17,22,0.30
2008,12,12,17,23,0.30
2008,12,12,17,24,0.30
2008,12,12,17,25,0.30
2008,12,12,17,26,0.30
2008,12,12,17,27,0.40
2008,12,12,17,28,0.40
2008,12,12,17,29,0.40
2008,12,12,17,30,0.40
2008,12,12,17,31,0.40
2008,12,12,17,32,0.40
2008,12,12,17,33,0.40
2008,12,12,17,34,0.40
2008,12,12,17,35,0.40
2008,12,12,17,36,0.40
2008,12,12,17,37,0.40
2008,12,12,17,38,0.40
2008,12,12,17,39,0.50
2008,12,12,17,40,0.50
2008,12,12,17,41,0.60
2008,12,12,17,42,0.60
2008,12,12,17,43,0.60
2008,12,12,17,44,0.60
2008,12,12,17,45,0.60
2008,12,12,17,46,0.60
2008,12,12,17,47,0.70
2008,12,12,17,48,0.70
2008,12,12,17,49,0.80
2008,12,12,17,50,0.90
2008,12,12,17,51,0.90
2008,12,12,17,52,1.00
2008,12,12,17,53,1.00
2008,12,12,17,54,1.10
2008,12,12,17,55,1.20
2008,12,12,17,56,1.20
2008,12,12,17,57,1.20
2008,12,12,17,58,1.20
2008,12,12,17,59,1.20
2008,12,12,18,00,1.20
2008,12,12,18,01,1.20
2008,12,12,18,02,1.20